GFSFLT2_2pvu_pres_000.txt.gz
Presure
195 195 192 192 198 177 184 167 167 163 188 184 174 190 212 235 234 212 205 224 252 258 251 248 233 238 238
174 161 174 188 187 176 165 173 197 208 180 190 204 218 237 213 202 263 218 257 251 258 257 247 247 232 237
174 172 196 200 169 175 186 195 170 209 179 225 197 232 241 194 199 208 221 270 259 246 233 246 232 233 236
225 231 165 228 185 169 189 287 250 237 214 238 230 258 266 258 214 213 217 247 246 247 240 234 230 234 226
258 270 371 367 329 268 248 292 342 346 282 259 242 223 228 251 229 214 257 243 240 240 241 230 230 232 228
386 385 210 214 246 200 195 246 214 199 282 217 227 226 264 255 229 249 249 250 239 236 238 230 229 226 229
327 233 247 351 358 372 373 369 335 259 275 231 287 279 264 248 240 248 252 246 242 224 238 229 225 230 238
327 357 386 344 333 290 381 276 374 252 307 293 279 272 252 266 241 246 245 239 227 231 230 223 229 239 223
372 370 368 361 358 368 381 377 366 341 347 326 292 274 265 243 239 254 245 237 234 230 221 231 233 222 239
373 374 370 376 304 358 354 350 345 345 308 300 302 275 253 244 249 254 254 232 235 229 235 228 233 236 228
363 371 366 379 366 349 341 334 314 306 289 279 277 261 272 255 254 242 237 237 227 233 233 230 233 231 239
346 351 365 296 290 336 314 298 318 306 317 303 295 278 276 247 248 240 237 236 231 230 234 232 240 235 231
329 347 367 362 266 280 351 249 290 290 295 280 269 263 270 252 244 234 229 241 236 239 240 235 233 241 240
316 343 349 326 350 307 249 289 285 277 267 255 252 256 251 247 240 226 237 234 240 238 238 246 236 239 250
318 343 319 330 304 289 276 276 265 257 255 249 249 239 239 238 235 238 241 237 235 236 236 243 240 250 240
346 320 328 300 289 285 239 275 259 256 249 249 243 238 243 245 244 233 235 245 236 241 239 248 257 245 248
265 332 250 252 240 265 267 260 251 254 253 256 254 255 247 244 247 242 244 249 257 245 251 248 259 250 270

GFSFLT2_2pvu_pres_003.txt.gz
Presure
161 160 176 239 163 195 256 257 226 205 210 208 196 193 200 171 175 186 178 196 218 224 213 225 216 265 226
270 161 175 239 216 319 177 250 178 259 190 206 191 177 199 196 206 203 185 224 250 244 230 202 275 266 217
370 352 302 388 310 269 289 222 358 326 236 333 245 249 268 255 238 207 232 236 254 217 229 234 244 218 243
357 351 347 335 381 384 371 362 343 343 344 342 328 282 269 308 245 235 234 235 273 265 258 213 259 242 263
340 374 400 399 400 380 360 339 351 320 347 242 353 346 340 339 319 284 220 274 260 247 235 256 250 243 253
414 414 411 407 357 345 353 362 348 368 362 356 356 203 206 341 207 207 279 271 269 245 276 255 245 236 249
387 328 328 376 366 335 311 329 331 341 309 312 321 289 341 346 298 258 277 264 250 248 248 242 257 249 230
324 324 316 313 309 315 391 385 384 327 364 359 378 371 277 338 302 289 263 260 249 260 260 252 243 234 241
401 404 403 390 379 378 375 370 369 368 361 360 371 388 346 334 303 296 272 256 262 255 246 237 238 242 237
278 385 388 383 382 378 379 381 371 359 341 349 355 351 340 331 295 293 286 263 253 247 244 248 238 234 248
367 374 378 377 385 347 302 375 372 341 307 347 344 317 314 316 299 283 274 255 265 248 254 240 242 254 236
354 367 424 442 437 359 334 381 358 322 328 322 319 331 311 301 311 312 284 271 263 245 239 246 243 237 220
333 330 363 365 333 350 372 341 279 321 315 309 292 287 276 271 276 281 264 249 247 251 262 249 247 237 236
316 273 336 305 341 354 329 319 313 289 300 311 264 311 293 291 278 273 267 258 258 260 263 252 243 247 230
295 345 301 292 338 323 330 325 315 306 295 290 281 267 277 271 265 263 258 238 241 241 244 244 234 230 236
329 304 333 330 313 309 303 303 290 283 285 251 259 262 258 251 251 243 239 235 238 237 231 240 248 250 238
316 329 316 299 310 300 298 287 272 276 253 258 259 252 245 246 250 250 249 249 248 249 255 246 244 247 249

GFSFLT2_2pvu_pres_006.txt.gz
Presure
360 275 362 362 425 437 397 375 388 388 344 247 321 183 315 308 241 246 264 245 263 258 191 216 182 193 196
431 425 421 201 426 434 430 427 407 383 383 380 367 366 325 351 350 255 290 271 229 276 238 259 246 246 215
420 413 411 405 408 409 424 368 351 341 360 326 326 364 361 328 285 198 330 260 263 254 274 251 288 272 301
399 401 399 397 401 406 404 405 334 325 321 319 320 334 359 347 344 335 338 330 327 293 258 255 259 261 246
392 396 396 381 383 393 409 403 408 412 407 408 373 387 357 343 349 337 330 329 264 308 292 207 222 269 244
400 398 289 397 354 303 311 322 402 402 394 398 376 356 340 335 330 333 325 356 328 298 278 269 271 240 257
321 298 320 394 394 380 325 320 306 305 363 373 370 340 318 339 351 308 348 352 322 315 274 281 290 259 257
370 392 388 380 378 406 511 324 319 317 314 305 371 376 340 299 343 304 324 286 329 308 301 279 274 266 253
364 382 384 368 365 404 445 411 404 382 375 382 357 376 370 364 371 377 290 304 286 327 294 274 263 269 253
370 370 363 370 354 367 321 392 392 385 363 373 359 356 362 360 369 366 360 364 272 292 289 286 258 252 257
357 354 356 362 368 400 430 380 393 361 317 375 369 353 345 341 346 349 381 332 316 287 280 275 264 252 244
346 341 350 357 351 386 441 454 395 411 298 367 368 358 299 353 340 349 322 308 303 297 275 276 268 261 256
333 336 346 338 361 368 362 349 348 366 364 349 337 328 329 340 344 323 313 305 300 278 275 266 271 241 242
322 333 330 361 301 328 335 358 344 343 335 328 300 321 345 314 306 298 286 306 303 290 262 254 255 262 262
326 324 348 292 267 326 342 330 334 319 309 299 300 298 290 300 282 281 273 272 276 278 274 269 259 256 256
322 334 325 309 306 332 346 327 311 305 300 295 297 292 298 288 283 283 289 289 270 264 263 261 253 246 241
319 311 304 329 323 328 314 301 300 287 290 285 283 284 278 257 272 267 255 259 251 249 248 247 249 250 248

GFSFLT2_2pvu_pres_009.txt.gz
Presure
445 441 430 419 411 411 415 409 411 418 412 424 399 371 368 383 332 326 324 336 328 320 305 279 266 300 270
439 426 414 405 402 398 394 394 398 329 403 410 428 410 395 355 363 343 336 298 321 310 309 273 277 279 277
418 422 415 406 401 397 389 385 386 386 383 396 391 404 405 372 308 352 392 342 334 330 304 278 264 291 273
382 387 400 402 405 405 393 389 397 394 384 378 387 400 417 410 347 342 311 360 328 314 292 289 293 265 273
198 263 379 375 384 392 397 398 391 393 383 361 382 395 418 400 382 322 337 330 332 343 311 330 267 275 249
241 465 571 390 379 374 382 391 310 292 395 358 320 303 404 430 337 325 319 351 319 320 354 348 288 289 258
520 525 533 532 538 401 368 333 300 286 289 409 314 304 312 412 397 387 335 348 347 337 326 350 325 290 276
479 487 497 503 514 459 362 374 380 371 378 489 440 317 307 310 408 411 382 365 372 340 341 342 327 304 279
458 472 480 487 501 368 373 376 362 361 377 505 486 320 309 306 302 389 332 328 338 331 317 338 320 313 314
442 458 478 486 365 367 361 363 351 353 421 472 402 394 392 320 318 303 364 300 321 299 289 334 328 344 282
452 432 361 357 355 348 352 356 352 463 389 295 347 390 378 379 381 348 380 366 333 313 328 291 332 317 288
358 352 347 340 338 344 347 351 437 431 387 384 385 341 375 366 368 370 370 367 364 352 343 292 276 340 320
338 335 328 329 339 337 339 454 470 494 382 393 363 297 372 362 350 344 339 353 354 353 352 326 302 281 277
326 318 326 331 323 352 345 331 332 343 349 354 325 362 351 338 316 310 330 366 370 368 339 305 312 300 288
314 325 323 343 331 313 329 344 341 339 340 339 335 333 339 340 351 353 322 321 315 303 286 288 292 282 277
322 330 330 309 302 319 323 321 323 313 312 308 308 325 320 309 297 291 289 293 299 296 287 295 266 287 270
321 306 305 291 323 327 313 303 307 301 298 301 303 297 296 288 260 287 277 275 278 276 260 266 281 267 267

GFSFLT2_2pvu_pres_012.txt.gz
Presure
443 426 178 407 407 403 397 394 404 428 421 413 408 406 404 403 404 416 427 374 366 361 329 329 293 317 325
414 444 469 520 560 496 394 378 377 378 407 402 396 392 389 395 407 406 425 396 391 388 364 356 318 323 295
450 437 428 424 433 442 510 501 373 191 364 385 287 385 380 382 391 396 389 392 407 366 347 319 333 309 321
421 411 404 428 462 497 380 187 186 198 336 372 392 390 382 377 374 381 388 430 400 380 395 372 341 311 305
413 398 401 440 463 496 515 452 508 529 399 363 378 396 391 388 381 376 389 403 423 378 355 404 342 329 367
394 391 413 431 450 477 491 508 530 490 549 379 368 378 385 391 392 395 381 400 408 414 372 350 389 333 318
387 395 424 431 444 464 474 484 500 509 524 544 365 377 385 394 395 388 379 395 406 391 375 348 361 293 327
389 419 431 433 444 459 470 478 495 516 545 366 365 371 378 309 293 334 355 311 408 410 362 337 330 331 313
406 428 438 440 459 472 501 530 499 401 366 360 370 372 372 368 388 409 319 308 405 411 340 356 325 353 329
416 431 444 366 359 354 354 351 353 361 365 360 357 360 367 375 297 422 320 308 307 414 319 307 320 321 346
434 391 349 345 344 341 342 343 345 357 359 352 351 384 480 474 471 403 314 307 304 408 393 354 317 296 312
344 337 332 331 329 331 335 342 348 354 345 405 416 377 395 329 280 387 387 316 300 335 377 376 369 332 337
327 327 319 320 329 335 333 335 424 422 425 428 381 373 385 395 388 377 382 391 305 351 367 323 360 337 329
323 313 320 327 322 342 336 331 335 352 371 444 400 365 340 310 366 370 371 375 375 389 351 293 331 314 327
313 319 323 328 314 329 344 346 348 351 356 351 354 358 320 369 364 350 348 355 358 363 368 360 284 316 287
328 320 311 302 334 316 320 306 327 324 322 323 326 330 340 343 336 328 335 331 339 349 358 371 317 344 305
305 297 292 317 321 323 309 300 311 306 309 334 327 337 353 360 332 327 332 333 336 339 339 341 326 313 286

GFSFLT2_2pvu_pres_015.txt.gz
Presure
271 307 332 445 429 417 441 458 451 445 447 457 542 425 388 389 398 428 434 437 442 437 409 357 317 312 292
409 446 426 413 428 462 465 443 434 425 414 419 426 448 473 381 375 393 421 421 428 428 415 346 346 322 302
436 416 407 458 462 449 435 422 406 393 405 459 478 510 520 440 380 236 236 408 410 408 418 401 356 336 294
405 410 446 448 434 418 405 385 389 421 437 453 488 543 530 503 249 192 200 399 400 407 405 410 387 378 313
405 447 418 431 401 389 383 407 430 425 439 468 495 519 549 574 429 378 326 399 394 397 405 415 390 383 322
474 425 444 387 382 389 417 432 440 442 469 489 479 512 535 462 523 390 367 405 395 388 391 395 382 407 389
444 425 396 371 408 431 432 447 472 493 499 490 490 508 523 444 585 399 371 412 397 383 379 384 390 414 381
426 396 378 417 440 427 481 505 521 523 505 486 478 489 502 524 546 367 374 388 399 392 387 386 395 400 401
394 385 432 449 363 353 355 356 357 365 391 465 472 492 511 522 372 371 377 380 381 387 384 396 391 392 405
413 434 422 347 344 344 344 347 351 355 351 350 355 357 360 362 363 369 374 304 287 279 381 372 382 385 412
340 342 332 333 334 331 333 338 339 338 343 349 352 357 362 365 363 363 366 374 324 394 326 333 295 398 376
332 326 326 320 320 328 334 337 343 343 349 349 352 353 352 353 414 363 365 404 400 323 307 303 392 401 415
322 319 314 325 327 341 343 345 358 465 460 432 379 375 380 384 396 407 404 384 377 319 304 301 399 410 383
311 317 323 328 322 320 341 349 341 333 356 428 364 387 374 387 386 302 300 310 351 303 303 302 390 390 309
326 322 319 309 346 317 343 344 337 337 342 348 353 350 341 316 356 369 371 370 380 345 304 298 363 383 341
312 302 316 301 315 324 316 327 318 322 328 331 342 353 349 295 332 353 356 362 363 367 356 297 315 364 373
307 323 315 316 304 304 301 302 304 329 323 327 327 324 330 324 326 337 342 350 353 359 365 289 290 303 296

GFSFLT2_2pvu_pres_018.txt.gz
Presure
228 241 156 129 62 175 457 448 433 417 406 440 462 460 461 453 447 442 444 478 481 399 402 484 472 452 389
269 366 487 412 401 446 429 414 477 458 442 441 435 433 437 436 429 420 419 419 459 463 397 390 478 478 443
479 404 394 440 427 410 480 467 453 449 440 415 402 401 399 397 398 397 402 406 413 472 439 393 467 454 458
389 431 425 408 405 463 470 445 436 399 376 389 412 420 434 446 448 449 455 471 477 416 455 387 380 444 446
440 417 394 441 441 474 524 409 374 387 423 438 452 459 471 515 488 473 492 527 576 439 457 352 298 397 430
402 448 475 499 479 469 388 409 440 437 476 472 502 526 534 493 485 488 500 525 556 554 459 389 192 425 422
438 452 462 441 393 462 479 497 381 369 357 362 506 484 484 487 488 494 510 536 549 572 457 379 366 204 414
441 436 443 512 518 352 355 348 353 350 350 357 359 461 463 462 467 491 508 532 567 588 450 370 389 405 404
463 451 462 350 359 337 337 336 334 335 338 347 354 355 431 450 498 520 532 535 573 605 373 366 396 391 392
428 333 367 331 330 326 327 331 334 338 340 343 345 354 349 352 364 478 493 513 468 362 364 399 395 392 391
322 331 322 320 320 330 335 335 360 375 343 349 351 350 350 352 349 354 359 362 367 374 382 395 405 403 390
323 317 312 320 328 327 326 326 328 425 469 426 395 344 341 346 350 357 364 365 366 371 371 377 378 381 380
311 313 319 322 322 332 337 345 351 335 394 365 372 369 371 355 352 350 355 341 303 288 283 277 377 365 363
328 316 323 342 339 344 331 332 337 342 342 368 374 357 380 383 425 420 372 366 384 381 388 371 320 357 357
307 300 315 323 328 318 320 318 328 337 339 351 337 352 380 379 380 380 377 376 373 366 343 310 303 295 353
314 323 317 310 304 305 304 305 322 333 327 334 350 358 327 311 374 372 380 358 264 357 308 298 294 292 365
317 315 299 300 290 301 302 300 303 326 338 315 327 328 339 348 355 364 367 377 360 354 303 297 287 380 370

GFSFLT2_2pvu_pres_024.txt.gz
Presure
170 167 192 216 61 229 247 423 497 493 480 468 337 466 458 459 467 472 474 473 467 465 446 449 453 454 457
214 226 170 238 497 500 490 481 474 463 450 445 440 435 432 474 487 528 511 485 470 472 476 469 486 486 430
242 392 501 487 478 467 456 443 432 424 418 427 478 497 514 494 460 416 470 491 514 463 452 455 456 456 463
480 471 464 448 433 420 407 450 441 460 504 510 555 561 565 566 562 527 462 442 425 416 409 408 416 434 447
452 548 553 545 527 505 471 459 474 448 448 444 363 358 362 367 367 366 366 367 370 415 525 529 460 432 392
542 526 511 486 455 438 422 431 406 370 344 344 353 344 350 350 353 356 362 365 365 369 474 489 522 558 461
493 468 445 431 423 415 384 345 337 343 334 330 349 345 351 349 349 345 356 362 365 456 478 491 496 506 528
439 434 423 405 352 330 325 329 326 332 338 345 350 364 418 357 350 351 357 351 411 472 475 484 509 502 512
423 410 340 325 326 319 321 338 343 353 363 387 351 445 428 416 352 350 349 358 489 497 529 510 493 518 508
347 329 323 321 322 348 354 336 342 349 357 349 406 408 426 436 343 353 348 352 441 442 464 504 538 548 535
321 321 326 334 330 331 332 335 335 346 346 353 420 373 383 397 340 350 350 351 397 421 464 479 530 566 556
334 322 313 324 331 322 317 327 349 338 347 348 363 369 380 383 340 349 349 350 351 393 451 467 555 611 594
304 310 326 319 323 323 318 328 344 330 348 364 370 382 383 446 348 344 348 349 355 350 361 450 469 480 487
314 309 309 309 302 318 312 327 349 318 335 361 374 375 411 448 378 338 343 356 352 366 371 353 371 421 425
312 304 302 294 287 304 303 291 326 335 321 342 364 372 377 398 386 343 344 342 350 357 372 400 388 355 356
314 300 296 290 282 290 296 299 288 314 340 321 348 363 370 363 365 382 350 346 307 357 357 374 392 389 386
301 298 290 288 284 285 291 285 295 289 306 334 312 354 374 377 351 347 355 355 353 277 290 355 363 380 378

GFSFLT2_2pvu_pres_027.txt.gz
Presure
158 218 230 228 233 238 254 267 132 460 488 478 474 472 473 473 395 472 469 465 465 462 459 466 468 467 472
241 237 240 264 498 501 600 589 577 578 568 563 447 437 431 421 86 75 421 492 495 492 486 482 479 519 504
284 335 551 540 553 562 555 547 535 520 507 502 495 487 476 479 159 473 557 574 581 570 548 502 461 500 516
549 538 540 533 523 514 496 469 464 451 455 491 491 453 453 452 431 410 368 365 363 374 376 492 476 428 406
529 520 507 483 456 444 436 429 424 429 445 441 382 357 357 355 350 346 346 347 351 355 362 373 378 380 459
492 479 445 432 424 428 439 448 359 362 337 336 342 334 338 337 339 345 347 346 349 349 351 356 368 375 372
445 427 425 434 412 352 340 337 336 332 321 333 357 355 370 365 350 341 432 374 355 360 356 366 370 372 377
415 419 411 343 328 325 318 320 358 353 343 347 347 354 366 366 419 439 458 367 351 355 358 356 363 441 519
422 343 327 324 318 332 332 331 339 351 350 350 349 355 368 418 397 417 487 351 356 352 360 388 448 471 491
333 322 340 335 332 329 324 318 328 342 347 342 356 350 382 376 372 451 344 349 348 357 356 432 441 481 475
348 323 308 318 329 321 330 315 323 346 331 344 367 379 383 381 426 336 347 352 358 357 378 424 447 452 467
316 305 316 317 317 311 311 318 346 326 328 349 378 379 430 445 433 340 356 352 362 356 365 438 462 464 521
325 313 311 310 301 297 315 304 290 344 328 347 380 378 408 401 368 340 345 355 360 379 356 440 468 495 546
316 315 309 303 301 294 301 294 297 300 346 328 369 367 399 382 338 342 348 350 356 388 353 379 435 466 602
310 313 304 298 295 298 285 292 293 292 310 338 354 378 365 374 349 342 345 332 353 386 392 353 393 406 405
287 299 302 300 297 294 297 290 287 269 302 330 320 376 363 348 351 367 358 294 356 377 379 380 346 363 394
279 271 264 264 267 280 293 295 288 283 288 308 338 344 368 358 335 336 351 289 284 358 376 371 374 353 348

GFSFLT2_2pvu_pres_030.txt.gz
Presure
205 145 230 243 249 269 351 491 557 550 537 533 432 539 544 555 563 571 579 592 599 465 463 468 477 485 490
222 236 251 334 339 550 550 528 510 491 484 485 484 486 486 486 494 499 503 509 510 508 512 175 422 155 447
253 338 329 392 546 511 490 466 459 453 461 457 466 468 203 466 458 447 447 451 457 460 468 334 504 586 584
335 326 533 503 469 459 448 438 440 463 425 364 360 356 357 356 356 361 362 367 371 409 416 422 455 477 489
358 509 478 446 430 435 457 429 363 345 333 338 337 339 341 341 342 338 339 343 345 349 353 352 353 357 361
487 459 425 423 456 389 345 335 324 356 330 343 348 349 358 368 370 370 369 388 360 359 362 364 357 355 353
437 413 442 412 342 331 334 342 349 347 336 338 351 350 362 358 363 371 369 394 444 454 457 420 384 361 362
400 427 360 327 351 329 313 332 337 334 323 347 351 343 354 368 363 414 387 396 497 478 410 359 351 358 364
401 383 360 348 318 306 326 318 326 331 354 342 332 349 377 375 385 384 385 457 384 344 356 358 356 358 362
433 367 346 311 312 326 314 299 308 314 335 346 339 366 383 389 398 436 405 366 340 351 350 354 365 361 434
366 328 307 331 324 317 302 292 306 305 302 345 340 384 397 454 443 394 354 338 350 354 368 374 360 437 437
320 311 327 319 317 310 301 293 302 302 305 325 335 385 398 388 377 352 341 350 352 361 401 356 419 427 440
324 328 321 314 311 307 300 300 297 295 293 292 333 390 378 373 359 339 360 345 357 399 382 409 401 451 478
292 283 281 278 305 299 299 294 298 293 285 291 327 364 365 371 359 353 352 351 355 394 355 397 389 405 517
285 278 279 281 276 271 273 266 290 295 288 293 316 334 378 352 355 342 352 326 364 390 357 418 371 380 398
292 276 274 275 272 264 262 271 269 294 289 289 292 336 365 363 345 340 339 284 363 380 398 378 418 414 382
328 319 357 363 346 264 249 293 272 281 292 281 284 313 344 376 342 327 330 277 358 371 388 375 382 405 409